Wind_Speed
18 18 17 15 15 17 17 17 17 16 15 15 15 15 15 15 15 16 16 16 16 17 18 18 18 19 20 21 20 20 20 19 17 16 16 17 17 18 19 20 20 20 20 20 20 20 19 19 18 17 17 16 16 17 17 18 19 19 19 19 19 20 19 19 18 19 19 19 19 19 18 18 18 18 18 19 19 19 19 19 20 20 20 20 21
19 19 19 17 17 17 16 16 17 17 17 17 17 17 17 17 17 17 16 16 17 18 18 19 19 20 20 20 20 20 20 19 19 19 19 19 19 20 20 21 21 21 21 21 22 21 21 20 19 18 18 18 18 19 19 20 20 20 20 20 21 21 21 20 20 20 19 19 19 19 18 18 19 19 19 20 20 20 20 20 20 20 21 21 22
19 19 19 19 18 18 17 16 16 17 17 18 19 19 20 20 19 19 18 18 19 19 19 20 20 20 20 20 20 20 20 21 22 22 22 21 20 21 21 21 21 22 22 23 23 23 22 21 20 19 19 19 19 20 20 20 20 20 21 21 22 23 23 22 22 21 20 20 20 20 19 20 20 21 21 21 21 21 20 20 20 20 21 22 23
20 19 19 19 19 19 19 18 17 17 17 18 20 21 22 22 20 20 20 20 20 19 19 20 20 20 20 20 20 20 21 22 22 22 22 21 21 20 21 21 22 22 23 24 24 24 23 22 21 20 20 20 20 20 20 21 21 21 21 21 22 23 23 23 23 23 22 21 21 20 21 21 21 22 22 21 21 21 20 21 21 22 23 24 25
21 21 21 21 21 21 21 21 20 19 19 19 20 21 22 22 21 21 21 21 20 20 20 20 21 21 20 20 21 21 21 22 22 22 22 22 22 22 22 22 23 23 24 24 25 25 25 24 22 22 21 21 21 21 21 21 21 21 21 22 22 23 23 24 24 24 23 23 22 22 22 22 23 23 23 23 22 22 22 22 23 24 25 25 25
21 21 21 22 22 22 21 21 21 20 19 19 20 21 22 22 22 22 22 22 21 21 21 21 22 21 21 21 21 21 21 22 22 23 23 23 23 24 24 25 26 26 25 25 25 26 26 25 24 23 22 21 21 21 21 22 22 21 21 22 23 23 23 24 24 24 24 24 23 23 23 23 24 24 24 24 24 24 24 24 25 25 26 26 26
23 22 22 21 21 21 20 20 19 19 19 19 21 22 23 23 23 22 22 22 23 22 22 23 23 22 22 23 23 22 23 23 23 23 23 23 23 24 25 26 27 28 27 27 27 27 27 27 26 24 23 22 21 21 21 21 22 22 22 22 23 23 23 24 24 24 25 25 25 25 25 25 25 26 26 25 25 25 25 25 26 26 26 26 26
22 23 22 20 20 21 22 20 19 18 19 19 21 21 22 23 24 24 23 23 24 24 24 24 24 24 24 25 24 24 24 24 23 23 23 23 23 23 25 27 28 28 28 28 28 28 28 28 27 26 24 23 22 21 21 21 22 22 22 23 23 23 23 24 24 25 25 26 26 26 26 27 27 27 26 26 25 25 25 25 25 25 26 27 28
19 19 18 18 18 21 22 20 19 18 18 19 20 20 20 22 24 25 24 23 24 25 25 25 25 25 26 26 25 25 24 24 23 23 23 22 22 23 25 26 27 28 27 27 28 29 29 29 28 27 25 24 23 22 22 22 22 23 23 23 23 23 24 24 24 25 26 26 27 27 27 28 27 27 27 26 26 26 26 26 26 27 28 29 29
18 16 16 16 15 18 20 19 18 17 17 19 21 20 20 21 23 24 25 25 25 26 26 26 26 27 28 27 26 26 25 23 23 22 22 22 23 24 25 26 27 27 27 26 27 29 30 30 29 28 26 24 23 23 23 23 24 24 24 24 24 25 25 25 25 26 27 27 27 27 27 27 27 28 28 28 28 27 27 27 28 29 29 29 29
19 17 16 16 16 18 19 18 18 18 17 19 20 18 19 21 23 24 26 27 27 27 27 28 28 28 29 28 27 26 25 23 23 23 22 22 22 23 23 24 24 24 25 26 27 29 30 30 29 28 27 26 24 24 24 24 25 25 26 26 26 26 27 27 27 27 28 28 28 28 28 28 29 30 30 30 29 29 29 29 29 30 29 29 29
18 17 17 17 18 19 19 19 21 21 20 19 19 18 20 22 24 26 28 29 28 28 28 28 28 29 29 28 27 26 24 23 22 22 21 20 20 21 22 22 22 24 26 28 28 28 28 29 29 28 28 27 26 25 25 26 26 26 27 27 27 28 28 29 29 29 29 29 29 30 30 30 31 32 32 31 31 31 31 31 31 31 31 30 30
18 18 18 19 19 20 20 20 22 22 21 20 20 21 24 26 27 27 28 29 29 29 29 28 28 29 28 27 27 26 24 22 21 20 19 18 18 19 19 20 21 22 25 26 26 25 25 26 26 27 27 27 27 27 27 27 27 28 28 28 28 29 29 30 31 31 32 32 32 33 33 33 33 34 34 33 33 33 34 34 34 33 33 33 33
20 21 21 21 20 20 21 21 21 21 20 20 21 21 24 26 27 27 27 28 30 30 30 29 28 27 27 27 27 25 23 23 22 21 20 18 18 19 19 19 19 19 20 21 21 22 22 23 23 24 26 27 28 28 28 28 29 29 29 29 30 30 31 32 33 34 34 35 36 36 36 36 36 36 36 36 36 37 37 37 37 37 37 37 38
21 21 21 20 18 19 19 19 20 20 20 19 20 20 22 24 24 23 23 25 28 29 28 26 26 26 27 27 27 25 25 24 24 23 22 21 21 21 22 22 21 21 20 21 21 21 22 23 23 23 24 25 26 28 29 30 30 30 31 31 31 32 33 34 35 36 37 38 39 40 40 40 39 38 39 39 40 41 42 41 40 40 40 41 41
21 21 19 18 17 17 18 18 19 20 20 20 20 21 22 23 23 22 20 20 23 26 25 23 24 26 27 28 28 27 27 26 26 26 25 24 23 23 24 25 25 25 24 24 24 25 26 26 26 26 26 26 26 27 29 30 31 32 32 33 34 35 36 37 38 39 40 41 42 43 43 43 42 42 41 42 42 43 45 45 44 44 44 44 44
22 21 20 19 19 18 18 19 20 20 20 21 21 21 21 22 22 21 19 18 20 23 24 24 25 27 28 29 29 29 29 28 28 27 27 26 26 26 26 27 27 28 28 28 29 30 30 31 31 30 29 28 29 30 30 31 32 33 34 35 37 37 38 39 41 42 43 44 45 45 46 46 46 46 45 45 45 46 47 47 47 48 48 49 49
23 23 22 22 21 21 20 21 21 21 22 22 22 21 21 21 21 20 19 19 20 22 23 24 25 26 27 28 29 29 30 30 30 29 29 30 29 29 29 30 30 31 32 32 33 34 35 35 35 33 32 30 31 32 33 34 35 36 36 37 39 40 41 42 43 44 45 46 47 47 47 48 49 49 49 48 48 48 49 50 50 51 53 53 53
25 24 23 23 23 22 22 22 22 23 24 24 24 23 23 23 23 22 21 21 21 22 23 24 25 26 28 30 31 31 31 32 33 33 33 33 33 33 33 33 33 33 34 35 37 38 39 38 38 37 36 34 34 35 35 35 36 37 38 39 40 41 43 44 44 44 45 47 46 46 47 49 50 51 51 51 51 51 52 53 54 54 55 56 55
25 25 24 24 23 23 23 23 23 24 25 25 26 25 25 25 25 25 25 24 24 24 25 26 27 28 30 32 32 33 34 35 36 37 37 37 37 37 37 38 38 37 38 39 40 41 42 42 42 41 39 38 37 38 37 37 38 38 40 42 43 44 45 47 47 46 47 49 49 48 49 50 51 52 53 53 54 55 55 56 56 56 57 57 57
23 24 24 24 23 23 23 23 23 24 25 26 26 27 27 27 26 27 27 27 27 28 29 30 31 32 33 34 34 35 36 37 38 39 40 41 40 39 39 40 41 41 41 42 42 43 44 44 45 45 44 43 42 41 40 41 41 41 42 43 43 42 43 46 49 49 51 54 55 55 55 55 56 56 56 56 56 56 56 56 56 56 56 57 57
25 24 25 25 24 24 23 23 24 24 25 26 27 28 28 29 29 30 30 31 32 32 33 34 35 37 38 38 39 40 40 41 42 43 44 44 44 44 43 43 43 44 44 44 44 45 45 46 47 48 48 48 48 46 46 46 45 45 45 46 45 42 40 43 46 49 51 53 54 54 55 56 56 56 56 54 54 54 55 55 55 55 54 54 55
29 27 26 26 25 25 24 24 25 26 27 28 29 31 32 33 33 34 35 36 36 37 38 38 39 40 41 41 42 43 44 45 45 46 47 47 47 47 47 45 44 44 45 46 46 47 48 48 49 50 51 51 51 50 50 50 50 49 49 51 51 50 47 46 45 47 51 53 52 52 54 55 54 54 54 53 54 55 56 56 55 54 53 53 55
30 30 28 27 26 26 26 26 27 27 29 30 31 32 34 35 36 37 38 38 39 39 39 39 40 40 41 42 43 44 45 45 45 46 46 47 47 47 48 48 47 47 48 49 49 50 51 51 52 53 53 54 54 54 54 54 54 54 54 54 55 55 55 53 52 53 56 57 56 55 55 54 53 52 52 53 54 56 57 57 55 54 54 55 56
27 28 28 28 27 28 28 29 30 30 31 32 33 33 33 34 35 36 37 37 38 38 38 39 39 40 41 41 42 44 45 46 46 47 48 48 49 50 51 52 52 53 53 54 54 55 56 56 57 57 57 57 58 58 58 58 57 58 58 58 59 58 58 59 58 57 57 56 56 55 53 51 51 52 53 54 55 57 57 57 56 56 57 57 55
27 28 29 29 29 30 31 31 31 32 33 34 34 35 35 36 36 37 37 38 38 39 40 41 42 43 44 45 46 47 48 49 50 50 51 51 52 52 53 54 54 54 55 55 55 56 57 58 59 60 60 61 61 61 61 61 60 60 60 61 62 62 62 62 63 61 58 55 55 56 56 55 54 54 54 55 55 56 57 57 57 58 58 56 54
31 32 33 34 35 35 36 36 36 37 37 38 38 39 40 40 40 41 42 42 43 44 44 45 45 45 46 46 47 47 48 49 49 50 50 51 51 52 53 53 54 54 54 55 55 56 57 58 59 60 61 62 62 63 63 63 62 61 61 61 62 63 63 63 64 64 62 60 58 58 58 58 57 56 56 56 57 58 58 58 58 58 56 54 55
31 32 33 34 35 36 37 38 38 39 40 40 41 41 41 41 41 42 42 43 43 44 45 45 45 45 46 46 47 48 49 50 50 50 51 52 52 53 54 55 55 56 57 57 58 58 59 60 60 61 62 63 63 64 64 64 64 63 63 62 62 61 60 60 61 62 62 62 61 60 61 61 60 59 58 58 58 59 59 58 57 55 54 55 56
30 31 32 33 33 34 35 35 36 36 37 37 38 38 39 39 40 40 41 42 43 44 45 45 46 47 48 49 50 51 53 53 54 55 56 56 57 58 59 59 60 61 62 62 63 63 64 65 65 66 66 66 67 67 67 67 67 67 66 66 64 63 61 60 60 61 62 62 62 62 62 62 62 61 62 62 61 60 58 56 55 55 55 56 57
30 31 32 32 33 34 34 35 35 36 37 37 38 39 40 41 42 42 43 44 45 46 47 48 50 51 52 53 54 55 56 57 58 59 60 60 61 62 62 63 64 65 66 66 67 67 68 68 68 69 69 70 70 70 71 71 70 70 69 68 67 66 63 61 61 61 61 63 63 62 61 62 63 63 63 62 59 57 55 54 54 55 56 57 57
31 31 32 33 34 34 35 36 37 38 39 40 41 41 42 44 45 45 46 47 48 49 51 52 53 55 56 57 58 59 60 61 62 62 63 63 63 64 64 65 65 66 66 67 67 68 68 68 69 69 69 70 70 70 71 71 71 71 71 70 69 68 65 63 62 60 57 57 57 56 56 57 59 59 58 55 54 53 53 53 52 52 52 53 54
33 34 35 36 36 37 38 39 39 40 41 42 42 43 44 45 47 48 48 49 50 52 53 54 56 57 58 59 60 60 61 61 62 62 62 62 62 62 63 63 63 64 64 64 65 65 66 67 67 68 67 67 68 68 68 69 69 69 70 70 70 69 67 66 64 61 56 53 51 49 49 50 51 52 50 49 50 51 50 49 49 49 50 51 52
37 37 38 38 39 39 40 41 42 42 43 44 44 45 46 46 47 48 49 50 50 51 51 52 53 54 54 55 56 56 57 57 58 58 59 59 60 60 61 61 62 62 63 64 64 65 66 66 67 67 68 68 68 68 68 68 67 67 67 68 68 68 67 66 65 64 62 59 55 52 51 50 49 49 48 48 49 49 48 48 49 50 50 51 51
38 39 40 40 41 42 42 42 43 43 43 43 43 43 43 44 44 45 45 46 46 46 47 47 48 48 49 50 51 52 53 53 54 55 56 57 58 59 59 60 61 63 63 65 66 67 68 68 69 69 70 69 69 69 69 68 67 67 67 66 66 66 66 65 65 66 67 67 62 57 51 49 49 50 50 50 51 50 50 50 51 51 51 51 50
40 40 41 42 42 42 41 40 39 39 38 38 38 39 39 40 40 41 41 42 42 42 43 43 44 44 45 46 48 49 49 51 52 52 53 54 55 56 57 59 60 61 62 63 64 65 67 68 69 70 70 70 70 69 68 66 65 64 64 64 64 63 63 63 64 64 65 65 62 55 48 47 48 50 52 53 54 53 52 51 50 50 49 48 46
40 40 40 39 38 37 36 35 35 35 35 35 36 36 37 38 38 39 39 39 40 40 41 42 42 43 43 44 45 46 47 48 49 50 51 52 52 53 54 54 55 57 58 59 60 62 63 64 64 65 65 65 65 64 63 62 60 57 55 56 58 59 59 60 61 61 61 62 59 53 48 46 44 43 45 47 48 48 47 46 45 44 43 42 41
37 36 35 34 33 33 33 33 33 34 34 34 35 36 36 37 37 38 38 39 39 40 40 41 41 41 41 42 43 44 44 45 45 45 46 46 47 47 47 48 49 51 52 53 54 54 54 55 54 54 54 54 54 54 54 53 52 49 46 44 46 48 49 51 52 52 55 57 55 50 47 47 45 41 41 41 41 41 41 41 40 40 39 39 38
33 32 32 32 32 32 33 33 33 33 34 34 35 35 36 36 36 37 37 38 38 38 38 38 38 39 39 39 40 40 40 39 39 39 39 39 39 39 40 41 42 43 44 44 44 44 44 45 44 44 44 44 44 45 44 43 43 41 39 38 38 38 38 39 39 39 41 45 47 46 47 50 50 47 44 42 42 42 42 42 41 41 40 39 38
32 32 32 33 33 33 33 33 33 33 34 34 34 34 35 35 35 35 35 35 35 35 35 35 35 35 35 35 35 34 34 34 33 32 31 31 31 31 32 33 34 35 35 36 36 36 37 37 37 37 36 36 36 36 36 36 35 33 32 32 34 35 35 35 35 35 35 36 37 38 41 44 46 45 44 44 45 45 44 44 44 43 41 39 38
33 33 33 33 33 33 33 33 33 33 32 32 33 33 33 33 33 32 32 32 32 32 32 32 32 31 30 29 29 28 27 27 26 26 26 26 27 27 28 29 30 31 31 32 32 32 32 33 33 33 32 32 32 32 32 32 32 30 28 29 31 33 33 34 34 34 34 35 35 35 37 40 42 43 44 45 45 44 43 42 41 40 39 38 37
33 33 33 33 32 32 32 31 31 31 31 31 31 30 30 30 30 29 29 29 29 28 28 27 26 25 24 24 23 22 22 22 23 24 25 26 27 28 29 30 31 31 32 31 31 30 30 30 30 30 29 29 29 29 29 29 30 30 30 31 33 33 32 31 31 31 31 33 33 33 34 36 37 38 39 39 39 39 38 37 37 36 36 36 36
33 32 32 32 31 31 31 30 30 29 29 29 28 28 27 27 27 26 25 25 24 23 22 22 21 20 20 20 20 20 21 22 23 25 26 27 28 29 30 31 31 31 32 32 31 29 28 28 27 27 27 26 26 26 26 27 27 28 30 33 35 36 35 33 30 29 30 30 30 30 29 30 31 32 33 33 33 33 34 34 33 33 33 33 32
32 31 31 31 30 30 29 29 28 28 27 27 26 25 24 24 23 22 21 20 20 19 18 18 19 19 19 20 20 21 22 23 25 27 28 29 30 30 31 31 31 31 31 31 30 28 26 26 25 24 24 23 23 23 24 24 24 25 27 30 34 38 38 32 28 28 30 29 28 28 28 28 29 29 30 30 30 30 30 30 30 30 30 30 30
30 30 30 29 29 28 28 27 27 26 25 24 23 22 22 21 20 19 19 18 18 18 18 19 20 20 20 21 21 22 24 26 28 29 30 30 31 31 31 31 31 30 29 29 27 25 24 23 22 22 21 20 20 19 20 20 20 20 21 24 28 32 33 28 24 24 26 27 27 27 26 25 26 26 26 26 26 26 27 28 28 28 28 28 29
29 28 28 28 27 27 26 26 25 24 23 22 21 20 20 19 19 18 18 18 18 18 19 20 20 21 21 22 23 24 26 27 29 29 30 30 30 30 30 30 30 28 27 25 24 23 21 20 20 20 19 19 17 16 16 16 17 18 19 19 21 24 26 25 23 24 24 23 22 22 21 20 21 21 21 22 24 26 28 28 27 27 28 29 31
27 27 26 26 26 25 25 25 23 22 21 20 20 19 19 19 18 18 18 18 19 19 19 20 21 21 22 23 24 25 26 27 28 28 29 29 30 30 30 29 28 26 24 22 22 21 21 19 18 17 17 17 17 16 14 13 13 14 16 18 19 20 21 21 22 23 23 22 21 21 21 20 20 22 24 26 27 28 27 26 26 28 30 32 33
25 25 24 24 24 24 24 23 22 21 20 19 19 19 19 19 19 19 19 19 19 20 20 20 21 21 22 23 24 25 26 27 28 28 29 30 30 30 29 27 25 23 21 19 19 19 20 19 18 16 15 15 15 15 13 12 12 12 13 15 16 17 17 18 19 21 22 23 23 24 24 25 25 27 28 28 27 26 26 27 30 31 33 33 35
24 24 24 24 23 23 23 23 23 22 20 19 19 19 19 19 19 20 20 20 20 20 20 21 22 22 23 24 24 25 27 28 29 29 30 30 30 28 26 24 22 20 18 16 16 17 18 18 17 16 14 13 13 13 13 14 14 13 12 11 12 13 15 17 18 20 21 22 21 21 22 22 23 23 24 23 24 25 28 30 31 31 32 33 33
23 23 23 23 23 23 23 23 23 22 21 20 20 20 20 20 20 21 21 20 20 20 21 21 22 22 23 24 25 27 28 29 29 30 31 30 28 26 24 22 20 19 16 15 15 15 16 17 16 15 13 11 10 11 13 15 16 17 16 16 16 17 19 19 20 21 21 20 18 17 17 17 18 18 19 21 22 25 26 28 28 29 29 29 27
23 23 22 22 23 23 24 24 24 23 22 21 21 21 21 21 21 21 21 21 20 20 21 22 22 23 24 25 26 27 28 28 28 29 30 29 27 24 22 20 19 18 16 15 15 15 16 16 15 14 13 12 10 9 9 11 14 18 20 21 22 22 22 22 22 22 21 20 20 19 19 18 19 19 20 22 23 24 25 25 25 25 23 21 18
22 22 22 22 23 23 24 24 23 22 22 21 22 22 22 22 22 22 21 21 21 21 21 22 22 23 24 26 26 26 26 26 27 28 29 27 25 22 20 19 18 17 16 15 15 15 15 15 15 14 14 13 13 11 9 8 9 11 15 19 21 23 23 22 21 19 17 17 17 17 18 18 18 19 19 20 20 21 21 21 20 18 17 15 15
Wind_Direction
226 224 223 225 225 225 223 223 225 226 222 217 212 209 210 217 223 228 235 240 240 240 240 241 243 246 249 251 252 252 248 243 242 249 258 260 259 258 257 256 254 254 253 252 251 250 250 250 251 252 255 259 263 267 270 273 276 278 278 279 278 277 276 274 271 269 267 265 265 266 267 270 273 277 281 284 285 287 289 291 295 298 301 302 302
228 226 226 229 232 231 228 224 223 224 223 219 216 214 214 218 222 224 227 233 237 241 243 245 246 246 247 248 249 248 245 243 246 254 262 263 261 259 260 260 259 257 256 254 252 251 250 251 253 255 257 260 264 267 270 273 275 277 278 278 278 276 275 273 270 267 266 265 265 267 268 271 274 277 280 283 285 287 289 292 295 298 299 299 299
230 228 229 233 235 235 232 224 218 218 221 221 221 220 220 222 223 222 221 224 230 235 240 243 245 244 244 246 246 246 246 246 251 258 263 263 262 261 261 262 262 260 258 256 253 251 250 250 251 254 256 259 261 265 268 271 274 275 276 276 276 275 275 273 269 267 265 264 265 267 269 271 274 277 279 282 285 287 290 292 294 295 295 295 294
231 231 231 232 232 231 231 227 222 221 222 223 222 222 223 225 225 223 222 223 226 229 233 237 240 242 245 246 246 245 246 249 253 258 260 260 260 261 261 260 260 259 258 257 255 253 250 249 249 250 252 255 258 263 267 270 272 272 273 273 273 274 274 273 270 267 266 265 265 268 270 273 275 278 280 283 284 287 288 290 290 290 290 290 291
227 229 230 229 227 225 227 228 229 228 227 223 220 220 223 227 227 226 225 224 223 225 228 233 238 242 245 246 245 244 245 248 251 254 257 259 261 261 260 258 257 256 257 257 257 256 254 251 249 248 249 253 257 261 265 267 269 269 270 271 272 273 274 273 271 269 268 268 269 270 273 274 276 278 280 282 283 284 285 286 286 286 286 287 288
223 226 228 229 227 225 226 231 235 235 233 228 222 222 227 230 230 229 228 227 225 225 227 232 237 241 243 245 245 245 246 248 251 253 256 259 261 262 261 259 258 257 257 257 257 257 256 254 251 250 251 254 257 261 264 266 267 267 267 269 271 273 274 273 271 270 269 270 271 271 272 274 276 278 279 281 281 282 282 283 283 284 286 287 287
231 233 235 234 234 232 231 235 242 247 246 238 231 229 231 232 230 230 232 232 230 229 229 233 237 238 240 243 245 247 249 250 252 254 257 258 259 260 259 259 259 259 259 259 258 257 256 255 253 252 253 255 258 261 263 265 266 266 266 268 269 272 273 272 271 270 269 269 270 270 272 273 275 276 277 278 279 279 280 281 283 285 286 287 287
237 239 240 239 238 234 230 234 246 253 252 244 235 233 233 232 230 230 232 234 234 234 233 233 235 237 239 244 247 248 249 250 254 257 259 260 260 259 258 257 258 259 260 261 262 261 259 257 255 253 253 255 258 262 264 264 264 265 265 266 267 269 271 271 270 269 269 269 270 271 273 274 275 275 275 275 275 276 277 279 281 283 284 284 284
235 238 241 240 237 232 229 234 245 251 253 246 238 236 236 233 232 232 233 234 235 236 236 235 236 238 241 246 249 248 249 253 257 259 260 261 262 262 261 259 258 259 260 261 263 263 262 259 256 253 252 253 257 261 264 265 265 265 264 264 263 264 265 267 267 267 267 268 269 271 272 272 272 272 272 271 272 273 275 276 278 279 279 279 280
232 231 235 237 235 232 232 236 244 252 256 249 242 241 238 234 233 233 233 233 234 236 238 238 240 242 245 248 249 248 251 255 258 260 261 263 264 264 262 259 257 257 257 258 259 260 260 258 255 252 251 253 256 259 262 264 266 267 266 265 265 264 263 262 263 264 264 265 266 267 267 268 269 269 269 270 270 271 272 273 273 273 274 276 278
230 230 233 234 231 230 232 237 247 257 258 249 244 245 243 239 237 236 233 232 232 234 237 240 242 244 247 248 248 248 252 256 259 261 262 263 264 263 261 257 255 256 258 258 257 257 257 255 254 253 252 252 254 256 259 262 264 265 267 268 269 269 267 264 262 262 263 263 263 263 264 265 267 267 267 268 269 269 269 269 269 270 271 272 275
230 232 234 232 231 231 232 235 243 252 255 251 247 247 247 245 242 238 235 233 233 234 235 239 242 244 246 246 246 249 253 255 257 259 260 261 261 260 258 255 254 255 257 257 256 254 254 254 254 254 252 251 250 252 255 258 261 264 266 267 269 269 269 267 265 264 263 263 262 261 262 263 264 264 264 265 266 266 267 267 267 268 269 270 271
228 228 228 228 231 234 235 235 238 243 248 247 244 245 249 251 250 245 239 236 235 235 235 238 241 242 244 244 245 248 251 252 253 255 256 258 259 258 256 253 250 249 249 250 251 251 250 251 252 252 251 249 248 249 252 254 258 260 262 264 266 266 266 266 265 265 264 263 262 261 262 262 262 262 262 261 262 263 265 266 266 267 268 269 269
226 227 228 230 232 234 237 237 238 239 242 242 241 242 247 253 257 257 251 244 239 236 236 237 237 238 240 241 244 247 249 249 251 252 254 256 258 257 254 250 248 247 246 246 247 248 247 246 247 249 251 251 251 251 251 252 254 256 259 261 262 263 265 265 265 265 265 264 263 263 264 264 263 263 263 262 262 263 264 265 266 267 268 268 269
228 230 231 232 234 236 239 242 241 241 242 244 245 246 247 252 258 260 257 250 243 237 234 233 234 236 238 239 242 246 247 248 251 253 255 259 261 260 257 253 251 250 248 246 246 247 246 245 246 248 251 253 255 255 255 255 255 255 257 258 259 260 262 263 264 265 265 264 264 265 267 267 265 265 266 265 266 266 266 267 268 269 270 270 271
231 231 231 232 235 238 242 244 245 246 247 248 250 251 252 255 257 258 256 251 242 236 234 236 238 240 239 238 241 243 245 249 252 255 259 262 264 264 263 261 258 254 250 248 248 248 247 247 248 249 249 251 254 256 258 259 260 259 259 258 258 258 259 261 263 264 264 264 264 265 267 267 267 267 267 268 269 270 270 269 269 270 271 274 275
232 231 231 232 235 237 240 243 246 248 250 250 250 251 251 252 253 253 253 248 242 240 242 246 249 247 242 241 243 246 249 252 256 259 263 266 267 268 268 267 265 261 255 251 249 249 248 249 250 250 250 251 252 254 257 258 259 260 259 260 260 259 260 261 262 263 264 265 265 266 267 267 268 268 269 269 270 271 272 271 271 271 273 275 277
234 233 233 235 236 238 239 241 244 246 247 248 248 248 248 249 250 250 250 249 246 247 249 251 251 250 248 247 248 251 254 257 260 263 266 267 269 269 269 268 267 266 264 260 256 253 251 251 252 253 254 253 254 255 257 257 257 257 257 258 259 259 260 261 262 264 266 267 267 267 269 269 270 270 270 270 270 271 272 273 273 273 274 275 276
235 236 236 236 237 237 236 237 239 241 242 244 245 246 246 247 249 251 253 252 251 251 252 253 252 251 252 253 254 256 258 259 261 262 263 264 266 267 269 270 269 269 269 267 264 261 258 257 256 256 257 258 258 259 260 259 259 259 259 259 260 260 260 261 262 265 267 267 267 267 269 270 270 270 269 269 270 270 272 273 273 274 274 275 275
237 238 238 236 235 234 235 236 236 238 239 241 243 245 247 248 248 250 252 253 252 252 253 253 253 253 254 256 259 260 261 260 260 260 262 264 265 268 270 270 270 270 269 267 266 265 263 263 262 262 262 263 263 262 262 262 262 263 263 263 263 264 264 263 262 262 263 265 266 267 268 269 269 268 269 269 270 271 273 273 274 274 275 275 275
241 240 238 236 234 233 234 236 238 240 241 243 245 246 249 250 250 251 253 254 255 255 255 255 255 255 256 257 258 260 261 261 261 262 263 265 266 268 269 269 269 269 268 268 268 267 265 265 265 266 267 266 265 263 262 262 262 263 264 264 265 266 267 267 266 264 264 265 266 268 269 269 269 269 270 271 272 273 274 274 274 274 275 275 276
243 242 241 239 237 236 237 239 241 244 246 248 249 250 251 252 253 254 256 258 260 261 262 261 260 260 260 259 258 258 259 260 261 263 264 265 266 266 266 267 267 267 267 267 267 266 265 264 264 266 266 266 265 264 263 262 262 263 263 262 261 260 261 265 268 269 268 268 268 270 271 271 272 271 271 272 273 274 274 274 273 273 275 276 278
242 244 245 244 243 243 242 243 245 248 250 251 252 253 254 254 255 257 258 260 262 264 264 264 263 262 262 261 261 260 260 260 262 263 264 265 266 266 266 266 266 266 267 267 266 265 264 264 264 265 265 265 265 265 264 263 262 263 263 262 261 259 257 258 262 266 268 269 270 273 274 274 273 272 271 272 274 273 272 272 273 273 275 277 279
240 242 244 244 244 246 248 249 250 251 252 253 254 255 256 257 258 260 262 263 265 266 266 266 266 265 265 264 264 264 264 264 264 265 265 266 266 266 267 267 267 268 269 269 268 268 267 267 266 266 267 267 267 266 265 264 262 263 263 263 262 260 259 258 259 261 264 267 270 273 274 273 272 272 271 272 271 269 270 271 272 273 275 278 279
239 241 242 244 247 250 253 254 253 253 253 253 254 255 256 258 259 261 263 264 265 266 267 267 268 268 268 267 267 267 267 267 267 267 267 267 268 268 269 269 269 271 271 270 269 269 269 269 268 267 267 267 267 267 266 265 264 263 263 262 262 262 263 264 265 266 267 268 269 269 269 269 271 272 272 271 269 268 269 271 272 274 277 278 278
244 244 246 247 249 251 253 254 253 253 252 253 254 255 256 257 259 261 263 264 266 267 269 270 271 271 271 271 271 271 271 271 270 271 271 271 271 271 271 271 272 272 272 272 271 270 270 269 269 269 269 269 269 269 268 268 267 266 265 265 265 265 266 268 270 271 271 269 268 267 267 269 272 274 273 271 270 270 272 274 276 278 278 277 277
247 247 248 249 250 252 254 256 256 257 257 258 259 261 262 262 263 265 266 268 269 271 272 273 274 275 275 275 275 274 274 274 274 274 273 273 273 273 273 273 273 273 272 272 271 271 270 269 269 268 269 269 269 269 269 269 269 269 268 268 268 269 269 270 270 271 270 269 268 268 269 270 272 273 273 273 273 274 276 277 278 277 275 274 275
250 250 250 252 253 254 256 257 258 259 261 262 264 265 266 267 267 268 269 270 271 272 273 274 275 275 276 276 277 277 277 277 277 276 276 275 275 275 274 274 273 273 273 272 271 270 270 269 268 267 267 267 267 267 267 267 267 267 267 267 267 268 269 269 268 268 268 268 267 267 269 270 271 272 273 273 274 276 277 276 275 273 272 273 275
251 252 253 254 256 257 258 259 261 262 263 265 266 268 269 270 270 271 272 273 273 274 274 275 276 276 277 277 277 277 277 277 277 277 276 276 276 276 275 275 274 274 273 272 271 271 270 269 268 268 267 267 266 266 266 266 267 266 266 266 266 266 266 267 267 268 268 268 268 268 270 271 272 272 272 273 275 277 276 273 270 270 272 275 276
252 253 254 255 257 258 259 261 262 263 265 266 267 268 269 270 271 272 272 273 274 274 275 275 275 275 276 276 276 276 276 276 276 275 275 275 275 275 275 274 274 274 274 273 273 272 272 271 270 270 269 268 267 267 267 266 267 267 266 266 265 265 265 266 267 269 269 269 269 270 270 271 271 271 272 273 273 272 270 268 267 270 273 273 273
256 256 257 257 258 259 259 260 261 262 264 264 265 267 268 269 270 271 271 272 273 273 274 274 274 274 274 275 275 275 276 276 276 277 277 276 276 275 275 274 274 274 274 274 274 273 273 273 272 272 271 270 270 269 268 268 267 266 266 266 265 265 264 265 267 269 268 267 267 267 267 268 268 269 270 271 270 269 269 269 270 272 272 272 272
258 259 260 261 262 262 263 264 265 266 267 267 268 269 270 271 271 272 272 272 272 272 273 273 273 273 273 273 274 274 275 276 276 277 277 277 278 277 277 276 276 275 275 274 274 273 273 273 272 272 272 271 271 270 269 269 268 267 266 266 265 265 264 263 264 265 264 262 262 263 265 267 269 270 270 269 268 269 270 271 271 271 271 272 273
263 264 264 265 266 266 267 268 269 270 271 272 272 272 272 272 272 272 272 272 271 271 272 272 273 273 273 274 274 275 275 276 276 276 276 277 277 277 278 277 277 277 276 276 275 274 274 273 273 272 271 271 270 270 269 269 268 267 267 266 266 265 264 262 262 261 260 259 260 263 267 269 270 270 269 268 267 268 268 270 271 271 271 272 273
265 266 267 268 269 271 272 272 273 273 273 273 273 272 272 271 271 271 271 271 271 271 271 271 272 273 274 275 275 276 276 277 277 277 277 277 278 278 278 278 278 277 277 276 276 275 275 274 274 273 273 272 271 270 270 269 268 267 266 266 265 265 264 263 261 259 259 261 263 266 269 269 268 268 269 269 269 269 270 271 272 272 271 273 274
266 268 270 271 273 274 274 275 275 275 274 274 273 273 272 272 271 271 271 271 272 273 273 274 274 275 276 277 277 278 278 279 279 280 280 280 280 280 280 280 280 279 279 278 277 276 275 275 274 274 274 273 273 272 272 271 270 269 268 267 266 265 264 263 261 260 260 263 266 268 270 269 266 265 266 267 267 268 270 271 271 271 271 272 272
271 272 273 273 273 274 274 274 274 273 273 273 273 273 273 273 274 274 275 275 276 277 277 278 279 279 280 281 281 281 281 282 283 283 284 284 285 285 285 285 284 283 282 281 279 278 277 276 275 275 275 275 275 274 274 274 273 272 270 269 268 266 264 264 263 261 261 263 266 269 269 266 263 262 264 265 265 265 266 266 266 266 266 266 266
272 272 271 271 271 271 271 272 272 272 272 273 273 273 274 275 276 277 278 279 280 280 281 282 282 283 283 284 284 284 285 286 286 287 288 290 291 291 291 290 289 287 285 283 282 281 280 279 279 278 278 277 276 275 275 274 273 272 270 269 269 268 266 265 264 262 261 262 264 265 263 261 262 267 269 268 266 264 262 260 260 260 261 262 264
270 270 270 270 271 272 272 272 273 273 273 273 274 274 275 276 277 278 279 280 281 283 284 284 285 285 286 286 286 286 287 288 289 291 292 294 295 296 297 296 295 293 290 288 287 285 284 282 281 280 279 277 276 275 274 274 273 271 268 266 265 265 266 265 262 261 262 263 263 262 259 258 262 266 268 267 265 263 261 260 261 262 264 266 269
271 271 272 272 273 273 273 273 273 273 274 274 274 275 276 277 278 279 280 281 282 284 285 286 286 287 287 287 287 287 288 289 290 292 295 298 301 303 306 307 306 303 299 295 292 291 288 286 284 283 282 279 276 274 273 272 272 268 264 261 260 261 262 262 260 259 259 259 259 257 255 254 257 260 261 262 261 260 260 261 263 265 268 272 276
272 272 272 273 273 273 273 273 273 274 274 275 275 276 277 278 279 280 281 283 284 285 286 286 287 287 287 287 287 287 288 289 291 294 298 302 306 310 314 317 318 317 312 305 300 296 293 290 287 286 285 281 278 275 273 271 269 264 255 250 250 254 256 254 249 245 244 242 241 242 244 246 250 253 255 257 257 258 260 263 266 269 274 277 281
271 272 272 273 273 273 273 273 273 274 274 274 275 275 276 278 279 280 282 283 284 285 286 287 288 288 287 286 285 285 287 290 293 297 301 305 308 312 315 318 320 322 322 317 310 303 298 294 290 288 287 283 279 276 274 272 269 262 251 243 244 248 246 238 231 232 235 237 238 239 241 244 248 252 255 258 261 263 267 271 274 277 280 282 285
271 271 272 272 272 273 272 272 272 272 272 272 273 274 275 277 278 278 280 281 283 284 286 286 286 286 284 283 284 286 289 294 297 300 303 306 308 311 314 315 317 320 322 322 317 310 304 299 294 291 289 285 280 275 274 273 270 263 252 244 242 244 242 236 235 241 246 246 248 251 253 254 257 262 266 270 273 274 276 278 279 281 283 284 284
270 270 270 271 271 270 270 270 269 269 269 270 270 271 271 273 274 275 277 278 279 279 280 281 281 282 282 285 288 292 296 299 302 304 305 307 308 310 311 312 313 315 319 322 320 315 308 304 299 294 291 287 281 276 274 274 272 267 258 250 245 247 251 254 256 259 262 264 266 268 269 269 269 270 270 271 272 273 275 277 279 279 279 279 280
269 269 269 269 269 268 268 267 266 265 265 265 265 265 266 268 270 272 273 273 272 273 276 278 280 282 285 289 293 298 301 303 305 306 307 307 308 309 309 310 310 311 315 320 322 318 312 306 301 297 293 289 284 279 275 274 272 269 265 259 253 254 261 266 265 262 265 271 274 275 273 272 269 267 264 264 265 268 272 275 275 274 276 280 285
268 268 268 267 266 266 264 262 260 259 259 259 259 260 263 266 268 269 268 267 268 272 277 282 286 289 293 295 298 301 305 307 308 308 308 308 307 308 309 308 307 307 311 317 322 322 318 312 305 299 294 291 288 283 279 277 274 269 266 263 259 257 259 260 258 260 266 271 273 272 270 267 265 264 263 264 266 268 269 270 272 277 283 288 290
266 266 265 264 262 260 258 255 253 252 253 255 257 260 263 265 266 264 262 263 267 274 280 286 291 295 298 301 304 307 310 312 313 312 311 310 310 310 309 307 305 305 308 314 321 327 328 324 315 305 295 290 288 285 280 275 273 269 263 259 257 255 254 254 256 262 268 272 273 272 271 269 268 267 266 265 266 266 268 272 280 286 289 289 288
263 262 261 258 256 254 251 248 247 247 250 254 258 262 264 264 262 259 258 262 269 277 283 289 294 297 300 304 308 312 315 317 318 317 316 316 315 313 310 307 303 302 305 312 320 329 335 334 328 318 304 292 286 283 276 266 264 266 264 259 257 256 252 249 251 254 256 257 259 261 263 263 262 262 262 262 264 268 273 279 283 284 285 286 289
259 257 255 252 250 247 245 243 243 245 249 255 260 263 262 260 256 255 257 263 271 279 287 293 297 300 303 306 309 313 317 320 321 322 323 322 320 316 312 307 302 299 302 309 318 327 336 341 339 334 321 302 288 279 270 260 255 253 249 241 235 230 229 230 236 240 243 245 250 254 255 256 257 257 259 261 265 269 273 276 279 282 286 289 291
256 254 252 249 246 243 241 240 242 245 250 256 260 261 259 255 253 254 258 264 272 281 289 296 300 303 306 309 312 314 317 320 323 326 327 326 322 318 314 308 301 297 298 305 311 318 329 339 345 347 344 331 307 286 272 262 257 252 246 238 231 228 230 236 242 247 251 256 262 266 267 267 267 267 268 269 271 273 276 279 283 287 289 289 287
255 252 249 246 244 242 241 241 242 245 250 255 257 256 254 252 252 254 259 266 274 283 291 297 302 306 309 313 315 316 317 320 324 328 330 328 324 320 316 310 303 297 296 299 303 307 315 325 335 344 352 356 348 328 299 277 265 259 257 254 253 254 256 261 264 266 266 269 273 274 275 274 273 273 275 276 278 280 282 284 286 287 285 281 277
252 250 247 244 242 242 241 242 243 246 249 252 253 252 250 250 252 256 262 268 276 283 290 297 303 307 311 315 317 318 318 320 325 330 332 331 327 324 320 314 306 299 294 292 294 297 303 310 317 326 336 344 347 347 342 329 302 279 267 262 261 263 267 272 275 277 276 274 272 273 274 275 276 278 279 280 280 282 282 282 280 276 272 268 266
Height
5759 5759 5759 5760 5760 5761 5761 5762 5763 5763 5764 5765 5766 5767 5768 5769 5771 5772 5773 5774 5775 5776 5777 5778 5779 5780 5780 5781 5781 5782 5783 5784 5784 5785 5785 5785 5785 5785 5786 5786 5786 5786 5786 5786 5787 5787 5787 5788 5788 5789 5789 5789 5790 5790 5790 5790 5790 5791 5791 5791 5791 5790 5790 5790 5790 5790 5790 5789 5789 5789 5789 5789 5790 5790 5790 5790 5790 5790 5789 5789 5788 5787 5787 5786 5786
5756 5757 5757 5758 5758 5759 5759 5760 5760 5761 5762 5763 5764 5765 5766 5768 5769 5770 5771 5772 5773 5774 5775 5776 5777 5777 5778 5778 5779 5780 5781 5782 5782 5782 5782 5783 5783 5783 5783 5784 5784 5784 5784 5784 5784 5785 5785 5785 5786 5786 5786 5787 5787 5787 5788 5788 5788 5788 5788 5789 5789 5788 5788 5788 5788 5788 5787 5787 5787 5787 5787 5787 5787 5787 5788 5788 5788 5788 5787 5786 5786 5785 5785 5784 5784
5754 5754 5754 5755 5756 5756 5757 5757 5758 5759 5760 5761 5762 5763 5764 5765 5767 5768 5769 5770 5771 5772 5773 5774 5774 5775 5775 5776 5777 5778 5779 5779 5779 5779 5779 5780 5780 5781 5781 5781 5782 5782 5782 5782 5782 5782 5782 5783 5783 5784 5784 5784 5785 5785 5785 5785 5786 5786 5786 5786 5786 5786 5786 5786 5785 5785 5785 5785 5785 5785 5785 5785 5785 5785 5785 5785 5785 5785 5785 5784 5783 5783 5782 5782 5782
5751 5751 5751 5752 5752 5753 5754 5755 5756 5757 5758 5759 5760 5761 5762 5763 5764 5766 5767 5767 5768 5769 5770 5771 5771 5772 5773 5774 5774 5775 5776 5776 5777 5777 5776 5777 5777 5778 5778 5779 5779 5779 5779 5779 5779 5779 5780 5780 5781 5781 5781 5782 5782 5782 5783 5783 5783 5783 5783 5784 5784 5784 5784 5783 5783 5783 5783 5783 5783 5783 5783 5783 5783 5783 5783 5783 5783 5782 5782 5781 5781 5781 5780 5780 5780
5747 5748 5748 5748 5748 5749 5750 5751 5753 5754 5755 5756 5757 5758 5759 5760 5762 5763 5764 5765 5766 5767 5767 5768 5769 5769 5770 5771 5772 5773 5773 5774 5774 5774 5774 5774 5774 5774 5775 5775 5776 5776 5776 5776 5777 5777 5777 5777 5778 5778 5779 5779 5779 5780 5780 5780 5781 5781 5781 5781 5781 5781 5781 5781 5781 5781 5781 5781 5781 5781 5781 5780 5780 5780 5780 5780 5780 5779 5779 5779 5779 5778 5778 5778 5778
5744 5744 5745 5745 5745 5746 5748 5749 5750 5752 5753 5754 5755 5756 5757 5758 5760 5761 5762 5763 5764 5764 5765 5765 5766 5767 5768 5769 5770 5770 5771 5771 5772 5772 5772 5772 5772 5771 5771 5772 5772 5773 5773 5773 5774 5774 5774 5774 5774 5775 5775 5776 5777 5777 5778 5778 5778 5778 5778 5778 5778 5778 5779 5778 5778 5778 5778 5778 5778 5778 5778 5778 5778 5778 5778 5777 5777 5776 5776 5776 5776 5776 5776 5776 5776
5741 5742 5742 5743 5745 5746 5748 5748 5749 5750 5752 5753 5754 5754 5755 5756 5757 5759 5760 5761 5762 5762 5762 5763 5763 5764 5766 5766 5767 5768 5769 5769 5769 5769 5770 5770 5769 5769 5769 5769 5769 5769 5769 5770 5770 5771 5771 5771 5771 5771 5772 5773 5774 5774 5775 5775 5776 5776 5776 5776 5776 5776 5776 5776 5776 5776 5776 5776 5776 5776 5776 5776 5776 5775 5775 5774 5774 5773 5773 5773 5772 5773 5773 5773 5773
5738 5739 5740 5742 5743 5745 5746 5747 5747 5748 5749 5750 5751 5752 5753 5754 5755 5756 5758 5759 5759 5760 5760 5761 5761 5762 5763 5764 5764 5765 5766 5766 5767 5767 5767 5767 5767 5767 5767 5767 5767 5767 5767 5767 5767 5768 5768 5768 5769 5769 5769 5769 5770 5771 5772 5772 5773 5773 5773 5773 5773 5774 5774 5774 5774 5774 5774 5774 5773 5773 5773 5773 5773 5773 5772 5771 5771 5770 5770 5770 5770 5770 5770 5769 5769
5735 5737 5738 5739 5740 5741 5743 5745 5745 5746 5746 5747 5748 5749 5750 5751 5752 5753 5755 5756 5757 5758 5758 5759 5759 5760 5761 5761 5762 5762 5763 5763 5764 5764 5764 5765 5765 5765 5765 5765 5765 5765 5765 5765 5765 5765 5765 5766 5766 5766 5766 5766 5767 5767 5768 5769 5769 5770 5770 5771 5771 5771 5771 5771 5771 5771 5771 5771 5771 5771 5771 5770 5770 5770 5769 5768 5768 5767 5767 5767 5767 5767 5767 5766 5766
5734 5735 5736 5737 5738 5739 5740 5742 5743 5744 5744 5745 5745 5746 5748 5749 5749 5751 5752 5753 5754 5755 5756 5757 5757 5758 5758 5759 5759 5759 5760 5760 5761 5761 5762 5762 5762 5762 5762 5762 5763 5763 5763 5763 5762 5762 5763 5763 5763 5763 5763 5763 5764 5764 5765 5765 5765 5766 5766 5767 5767 5768 5768 5768 5768 5768 5768 5768 5768 5768 5768 5767 5767 5767 5766 5765 5765 5765 5764 5764 5764 5764 5763 5763 5763
5732 5733 5735 5736 5737 5738 5739 5740 5741 5742 5742 5743 5743 5744 5745 5746 5747 5748 5748 5749 5750 5752 5753 5754 5755 5755 5756 5756 5756 5757 5757 5758 5758 5758 5759 5759 5759 5759 5759 5760 5760 5760 5761 5761 5760 5760 5760 5760 5760 5760 5760 5760 5760 5761 5761 5761 5762 5762 5762 5763 5763 5764 5764 5765 5765 5765 5764 5764 5764 5764 5764 5764 5764 5763 5763 5763 5762 5762 5761 5761 5761 5760 5760 5760 5759
5731 5732 5733 5734 5735 5736 5737 5739 5740 5740 5741 5741 5741 5742 5742 5742 5743 5744 5745 5746 5747 5749 5750 5751 5752 5753 5753 5753 5754 5754 5755 5755 5756 5756 5756 5756 5756 5756 5757 5757 5757 5758 5758 5758 5758 5758 5758 5758 5758 5758 5757 5757 5757 5757 5757 5758 5758 5758 5759 5759 5759 5760 5760 5760 5761 5761 5761 5761 5761 5761 5760 5760 5760 5760 5759 5759 5759 5759 5758 5758 5757 5757 5756 5755 5755
5729 5730 5731 5731 5733 5734 5735 5736 5737 5738 5738 5739 5739 5740 5740 5739 5740 5741 5742 5743 5745 5746 5747 5748 5749 5750 5750 5751 5752 5752 5753 5753 5753 5753 5753 5754 5754 5754 5754 5755 5755 5755 5755 5755 5755 5755 5755 5755 5755 5755 5755 5754 5754 5754 5754 5754 5754 5755 5755 5756 5756 5756 5756 5756 5757 5757 5757 5757 5757 5756 5756 5756 5756 5756 5755 5755 5755 5755 5754 5754 5753 5752 5752 5751 5750
5727 5728 5728 5729 5731 5732 5733 5734 5734 5735 5736 5736 5737 5737 5738 5738 5738 5739 5740 5741 5742 5743 5744 5745 5746 5747 5748 5748 5749 5749 5750 5751 5751 5751 5751 5751 5751 5752 5752 5752 5752 5752 5752 5752 5753 5753 5753 5753 5753 5753 5752 5752 5752 5751 5751 5751 5751 5752 5752 5752 5752 5753 5753 5753 5753 5753 5753 5753 5753 5752 5752 5752 5752 5751 5751 5751 5751 5750 5749 5749 5748 5747 5747 5746 5745
5725 5726 5726 5727 5729 5730 5730 5731 5732 5733 5733 5734 5735 5735 5736 5736 5736 5737 5737 5738 5739 5740 5741 5742 5743 5744 5745 5745 5746 5747 5748 5748 5748 5748 5749 5749 5749 5750 5750 5750 5750 5750 5749 5750 5750 5750 5750 5750 5750 5750 5749 5749 5749 5749 5749 5749 5749 5749 5749 5749 5749 5749 5749 5749 5749 5749 5749 5749 5748 5748 5748 5747 5747 5747 5746 5746 5746 5745 5744 5744 5743 5742 5741 5740 5739
5723 5723 5724 5725 5726 5727 5728 5729 5729 5730 5731 5732 5732 5733 5733 5734 5734 5734 5735 5736 5737 5738 5738 5739 5740 5741 5742 5743 5743 5744 5744 5745 5745 5746 5746 5746 5746 5747 5747 5747 5747 5746 5746 5747 5746 5746 5746 5746 5746 5745 5745 5745 5746 5746 5746 5746 5746 5746 5746 5746 5745 5745 5745 5745 5745 5744 5744 5744 5744 5743 5743 5742 5742 5742 5742 5741 5740 5739 5739 5738 5737 5736 5736 5735 5734
5720 5721 5722 5723 5724 5724 5725 5726 5726 5727 5728 5729 5730 5730 5731 5731 5731 5732 5733 5734 5735 5735 5736 5737 5738 5739 5739 5740 5740 5741 5741 5742 5742 5743 5743 5743 5743 5743 5743 5743 5743 5743 5743 5743 5743 5743 5742 5742 5741 5740 5740 5741 5741 5741 5742 5742 5742 5742 5742 5742 5741 5741 5741 5741 5740 5740 5739 5739 5738 5738 5738 5737 5737 5737 5736 5736 5735 5734 5733 5732 5732 5731 5730 5729 5729
5717 5718 5719 5720 5720 5721 5722 5723 5724 5724 5725 5726 5727 5728 5728 5728 5728 5729 5731 5732 5733 5733 5734 5735 5735 5736 5737 5737 5737 5738 5738 5738 5739 5739 5739 5739 5739 5739 5740 5740 5740 5740 5740 5740 5739 5739 5738 5737 5736 5735 5735 5735 5736 5736 5736 5737 5737 5737 5737 5737 5736 5736 5736 5736 5735 5735 5735 5733 5733 5733 5733 5732 5732 5731 5731 5730 5729 5728 5727 5726 5726 5725 5724 5723 5722
5713 5714 5715 5716 5717 5718 5719 5720 5721 5722 5723 5723 5724 5725 5726 5726 5726 5727 5728 5729 5730 5731 5731 5732 5732 5733 5734 5734 5733 5734 5734 5735 5735 5735 5734 5735 5735 5735 5735 5735 5735 5736 5736 5736 5735 5735 5734 5733 5731 5730 5730 5730 5730 5730 5730 5731 5731 5731 5731 5730 5730 5730 5730 5730 5730 5730 5729 5727 5727 5727 5727 5726 5726 5725 5724 5723 5722 5721 5721 5720 5719 5718 5717 5716 5715
5710 5711 5712 5713 5714 5715 5716 5717 5718 5719 5720 5721 5722 5722 5723 5723 5724 5724 5725 5726 5727 5727 5728 5728 5729 5730 5730 5730 5730 5730 5730 5730 5730 5730 5730 5730 5731 5731 5730 5730 5730 5731 5730 5730 5730 5729 5729 5728 5727 5727 5726 5725 5725 5724 5724 5725 5725 5725 5725 5724 5724 5724 5724 5724 5724 5723 5722 5721 5720 5720 5720 5720 5719 5718 5717 5716 5715 5714 5713 5713 5712 5711 5710 5709 5707
5708 5709 5710 5711 5711 5712 5713 5714 5715 5716 5717 5718 5719 5719 5720 5720 5721 5721 5722 5722 5723 5724 5724 5725 5725 5725 5725 5726 5726 5725 5725 5725 5725 5725 5725 5725 5726 5726 5725 5724 5724 5724 5724 5724 5724 5724 5723 5723 5723 5722 5722 5720 5719 5719 5718 5718 5719 5719 5718 5717 5716 5718 5718 5717 5716 5716 5715 5714 5713 5712 5712 5712 5711 5711 5710 5709 5708 5707 5707 5706 5705 5704 5702 5702 5701
5705 5706 5707 5708 5709 5709 5710 5711 5712 5713 5714 5715 5715 5716 5717 5717 5718 5718 5719 5719 5719 5720 5720 5721 5721 5721 5720 5721 5721 5720 5720 5720 5720 5720 5720 5720 5720 5720 5719 5718 5718 5718 5718 5718 5718 5717 5717 5717 5717 5716 5716 5714 5714 5713 5712 5712 5712 5713 5712 5710 5709 5710 5711 5710 5708 5708 5707 5705 5705 5705 5704 5704 5704 5703 5702 5702 5701 5700 5699 5699 5698 5697 5696 5695 5694
5702 5703 5704 5705 5706 5706 5707 5707 5708 5709 5710 5710 5711 5712 5712 5713 5713 5714 5714 5715 5715 5715 5715 5716 5716 5716 5715 5715 5715 5715 5715 5715 5715 5714 5714 5714 5714 5714 5713 5712 5712 5712 5711 5711 5711 5710 5710 5710 5710 5710 5709 5708 5708 5708 5706 5706 5706 5706 5705 5703 5702 5702 5703 5702 5701 5700 5698 5697 5697 5697 5696 5696 5696 5696 5695 5695 5694 5693 5692 5691 5691 5690 5689 5688 5687
5698 5699 5700 5701 5702 5703 5703 5704 5704 5705 5705 5706 5707 5707 5708 5708 5708 5709 5709 5709 5710 5710 5710 5710 5710 5710 5709 5709 5709 5709 5709 5709 5709 5709 5708 5708 5708 5707 5707 5706 5706 5706 5705 5705 5704 5704 5703 5703 5703 5702 5702 5701 5701 5701 5700 5699 5699 5698 5697 5696 5695 5694 5694 5694 5693 5692 5690 5689 5689 5689 5688 5689 5689 5688 5688 5687 5686 5685 5684 5683 5683 5682 5681 5680 5679
5694 5695 5696 5697 5698 5699 5699 5700 5700 5701 5701 5702 5702 5702 5703 5703 5704 5704 5704 5704 5704 5705 5705 5704 5704 5704 5704 5704 5703 5703 5703 5703 5703 5703 5702 5702 5701 5700 5700 5699 5699 5698 5698 5697 5697 5696 5696 5695 5694 5694 5693 5693 5693 5693 5692 5691 5691 5690 5689 5689 5688 5687 5686 5685 5684 5684 5683 5683 5682 5681 5681 5681 5681 5681 5680 5679 5678 5677 5677 5676 5675 5674 5673 5672 5671
5690 5691 5692 5693 5694 5695 5695 5695 5696 5696 5696 5697 5697 5697 5698 5698 5699 5699 5699 5699 5699 5700 5699 5699 5699 5698 5698 5697 5697 5697 5696 5695 5695 5696 5695 5694 5694 5693 5692 5692 5691 5690 5690 5689 5689 5688 5688 5687 5686 5685 5685 5684 5684 5684 5683 5682 5682 5682 5681 5680 5680 5679 5679 5677 5676 5676 5675 5675 5675 5674 5673 5673 5673 5673 5672 5671 5671 5670 5669 5668 5667 5666 5665 5664 5664
5686 5687 5688 5689 5690 5690 5691 5691 5691 5691 5692 5692 5692 5693 5693 5693 5694 5694 5694 5694 5694 5694 5694 5693 5693 5692 5691 5690 5690 5689 5688 5688 5688 5688 5688 5687 5686 5685 5684 5684 5683 5682 5681 5681 5680 5680 5679 5678 5678 5677 5676 5676 5675 5675 5674 5673 5673 5673 5672 5672 5671 5671 5670 5669 5668 5667 5667 5667 5667 5666 5666 5665 5665 5664 5663 5663 5663 5662 5661 5660 5659 5658 5657 5657 5656
5681 5682 5683 5684 5684 5685 5685 5686 5686 5686 5686 5687 5687 5687 5687 5688 5688 5688 5688 5688 5688 5688 5687 5687 5686 5685 5684 5684 5683 5682 5680 5680 5680 5680 5679 5679 5678 5677 5677 5676 5674 5673 5673 5672 5671 5670 5670 5669 5668 5668 5667 5666 5666 5665 5665 5664 5663 5664 5663 5663 5663 5663 5662 5661 5659 5659 5658 5659 5659 5658 5657 5657 5656 5655 5655 5655 5654 5654 5653 5652 5651 5650 5649 5648 5647
5676 5677 5678 5679 5679 5680 5680 5681 5681 5681 5682 5682 5682 5682 5682 5682 5682 5682 5682 5682 5682 5681 5681 5680 5680 5679 5678 5677 5676 5675 5673 5672 5672 5672 5671 5670 5670 5669 5668 5667 5665 5664 5663 5662 5662 5661 5660 5659 5658 5658 5657 5656 5656 5655 5655 5654 5654 5653 5653 5653 5654 5654 5654 5651 5650 5650 5651 5651 5650 5650 5649 5648 5648 5647 5647 5646 5646 5645 5645 5644 5643 5642 5641 5640 5639
5672 5673 5674 5674 5675 5675 5676 5676 5676 5677 5677 5677 5677 5677 5677 5676 5676 5676 5676 5676 5675 5675 5674 5674 5673 5672 5671 5670 5669 5668 5666 5665 5664 5663 5662 5662 5661 5660 5659 5657 5655 5654 5653 5652 5651 5650 5649 5648 5648 5647 5646 5645 5645 5644 5644 5644 5644 5643 5643 5643 5643 5644 5644 5642 5641 5642 5643 5643 5642 5642 5640 5640 5639 5639 5638 5638 5637 5637 5636 5635 5635 5634 5633 5632 5631
5667 5668 5669 5669 5670 5671 5671 5671 5671 5672 5672 5672 5672 5672 5671 5670 5670 5670 5670 5669 5668 5668 5667 5666 5665 5664 5663 5662 5661 5660 5658 5657 5655 5654 5653 5652 5651 5651 5649 5648 5646 5645 5644 5642 5640 5639 5637 5637 5636 5635 5634 5634 5633 5633 5633 5633 5633 5633 5633 5632 5633 5634 5635 5634 5633 5633 5634 5634 5633 5632 5631 5630 5630 5629 5629 5629 5628 5628 5628 5627 5626 5625 5624 5623 5623
5662 5663 5664 5664 5665 5665 5665 5665 5665 5665 5665 5665 5665 5665 5664 5663 5662 5662 5662 5662 5661 5660 5659 5658 5657 5656 5655 5654 5653 5652 5650 5649 5647 5646 5644 5643 5641 5640 5639 5638 5637 5635 5634 5633 5631 5629 5627 5626 5625 5624 5624 5623 5622 5622 5621 5621 5621 5622 5622 5622 5622 5623 5624 5625 5625 5624 5625 5624 5624 5623 5622 5621 5621 5621 5621 5620 5620 5620 5620 5619 5618 5617 5616 5616 5616
5657 5657 5658 5658 5658 5658 5659 5659 5658 5658 5658 5657 5657 5657 5657 5656 5655 5654 5654 5654 5654 5653 5652 5651 5650 5649 5648 5647 5645 5644 5642 5641 5640 5638 5637 5635 5633 5632 5630 5628 5627 5625 5624 5622 5621 5619 5617 5616 5615 5614 5613 5613 5612 5611 5610 5610 5611 5611 5610 5611 5611 5612 5614 5615 5615 5616 5616 5615 5614 5614 5613 5613 5613 5613 5612 5612 5612 5612 5612 5611 5610 5610 5609 5609 5609
5651 5651 5651 5651 5652 5652 5652 5651 5651 5651 5650 5650 5650 5649 5649 5649 5648 5648 5647 5647 5646 5646 5646 5645 5643 5642 5641 5640 5638 5637 5635 5634 5632 5631 5629 5628 5626 5624 5622 5620 5618 5616 5614 5612 5610 5608 5606 5605 5604 5602 5601 5601 5601 5600 5600 5600 5600 5600 5600 5601 5601 5602 5603 5604 5605 5606 5607 5606 5605 5605 5605 5605 5605 5605 5605 5604 5604 5604 5604 5604 5603 5603 5603 5603 5603
5645 5645 5645 5645 5645 5645 5644 5644 5644 5644 5643 5643 5642 5642 5641 5641 5641 5641 5641 5640 5639 5639 5638 5637 5636 5636 5634 5633 5631 5629 5628 5626 5625 5623 5621 5619 5617 5615 5614 5611 5608 5606 5604 5601 5600 5598 5595 5594 5592 5590 5589 5588 5589 5588 5588 5589 5589 5589 5590 5590 5591 5592 5593 5594 5595 5597 5598 5597 5596 5596 5597 5597 5597 5597 5597 5597 5597 5597 5597 5597 5596 5596 5596 5596 5596
5638 5639 5638 5638 5638 5638 5638 5638 5638 5638 5637 5637 5636 5636 5635 5634 5634 5633 5633 5633 5632 5632 5631 5630 5629 5628 5627 5625 5623 5622 5620 5619 5617 5615 5613 5611 5609 5607 5605 5602 5599 5596 5593 5591 5589 5587 5585 5583 5581 5580 5578 5577 5577 5577 5577 5578 5578 5579 5580 5580 5582 5583 5584 5585 5586 5587 5588 5587 5587 5588 5589 5590 5589 5589 5589 5589 5590 5590 5590 5590 5589 5589 5589 5590 5590
5632 5632 5632 5632 5632 5633 5633 5632 5632 5632 5632 5631 5630 5630 5629 5628 5628 5627 5626 5625 5625 5624 5624 5623 5622 5621 5619 5618 5616 5614 5613 5611 5610 5608 5606 5604 5601 5599 5596 5594 5591 5588 5584 5581 5579 5577 5575 5573 5572 5570 5569 5568 5567 5567 5567 5568 5569 5570 5571 5572 5573 5574 5575 5576 5577 5577 5578 5578 5578 5580 5582 5582 5582 5582 5583 5583 5583 5583 5583 5583 5583 5583 5584 5584 5584
5626 5626 5626 5626 5627 5627 5627 5627 5627 5626 5626 5625 5625 5624 5623 5623 5622 5621 5620 5619 5618 5618 5617 5616 5615 5614 5613 5611 5610 5608 5606 5605 5603 5601 5599 5597 5595 5592 5590 5587 5583 5580 5577 5574 5571 5569 5567 5565 5564 5563 5562 5560 5560 5560 5560 5561 5562 5563 5564 5565 5566 5567 5569 5570 5570 5569 5569 5569 5570 5572 5574 5575 5575 5576 5576 5577 5577 5578 5578 5578 5578 5579 5579 5578 5578
5620 5620 5620 5620 5621 5621 5621 5621 5621 5621 5620 5620 5619 5618 5618 5617 5616 5616 5615 5614 5613 5612 5611 5610 5609 5608 5607 5605 5604 5603 5601 5600 5598 5596 5594 5592 5590 5587 5584 5581 5578 5574 5571 5568 5565 5563 5561 5559 5557 5556 5555 5554 5554 5553 5554 5554 5555 5557 5558 5560 5561 5562 5563 5564 5564 5563 5563 5563 5563 5565 5566 5567 5568 5569 5570 5571 5571 5571 5572 5572 5573 5573 5573 5572 5572
5615 5615 5615 5615 5615 5616 5616 5615 5615 5615 5614 5614 5613 5613 5612 5612 5611 5610 5609 5608 5608 5607 5606 5605 5604 5603 5602 5601 5599 5598 5597 5595 5594 5592 5590 5588 5586 5583 5580 5577 5574 5570 5567 5563 5560 5558 5556 5553 5552 5550 5549 5549 5548 5548 5548 5549 5549 5551 5552 5554 5555 5556 5557 5558 5558 5557 5557 5557 5558 5558 5559 5560 5562 5563 5564 5565 5565 5565 5566 5566 5567 5567 5567 5567 5566
5609 5610 5610 5610 5610 5610 5610 5610 5610 5609 5609 5609 5608 5608 5607 5607 5606 5606 5605 5604 5603 5602 5601 5600 5599 5598 5598 5597 5596 5594 5593 5592 5590 5588 5586 5584 5582 5579 5576 5573 5570 5566 5563 5560 5556 5554 5551 5549 5547 5546 5544 5544 5543 5543 5543 5544 5544 5545 5546 5547 5549 5550 5551 5551 5550 5550 5550 5551 5551 5552 5553 5554 5556 5557 5558 5558 5559 5560 5560 5561 5561 5561 5561 5561 5561
5604 5604 5605 5605 5605 5605 5605 5604 5604 5604 5604 5604 5604 5603 5603 5603 5602 5601 5601 5600 5599 5598 5597 5597 5596 5595 5594 5593 5592 5591 5590 5588 5586 5584 5582 5580 5578 5575 5572 5569 5566 5563 5560 5556 5553 5550 5547 5545 5543 5541 5540 5539 5539 5539 5539 5539 5539 5539 5540 5541 5542 5544 5545 5545 5544 5543 5544 5545 5546 5547 5548 5550 5551 5552 5552 5553 5554 5555 5555 5555 5555 5555 5555 5555 5555
5599 5599 5600 5600 5600 5600 5600 5600 5600 5600 5599 5599 5599 5599 5599 5599 5598 5598 5597 5596 5596 5595 5594 5594 5593 5592 5591 5590 5589 5588 5586 5584 5582 5580 5578 5576 5574 5571 5569 5566 5563 5560 5556 5553 5550 5546 5544 5541 5540 5538 5537 5536 5535 5535 5535 5534 5534 5534 5535 5536 5537 5538 5539 5539 5539 5539 5539 5541 5542 5543 5544 5545 5546 5547 5548 5548 5549 5549 5549 5550 5550 5550 5550 5550 5550
5594 5594 5595 5595 5595 5595 5595 5595 5595 5595 5595 5595 5595 5595 5595 5595 5594 5594 5593 5593 5593 5592 5592 5591 5590 5589 5588 5587 5586 5584 5582 5581 5578 5576 5574 5572 5570 5567 5564 5562 5559 5556 5553 5550 5547 5544 5541 5539 5536 5535 5534 5533 5532 5532 5531 5531 5531 5531 5531 5532 5533 5534 5534 5535 5535 5535 5536 5538 5539 5540 5540 5541 5542 5542 5543 5544 5544 5544 5545 5545 5545 5545 5545 5545 5545
5589 5590 5590 5590 5590 5590 5590 5591 5591 5591 5591 5591 5592 5591 5591 5591 5591 5591 5590 5590 5590 5589 5589 5588 5587 5586 5585 5583 5582 5581 5579 5577 5574 5572 5570 5568 5565 5563 5560 5557 5555 5552 5550 5547 5544 5541 5539 5536 5534 5532 5531 5530 5529 5529 5529 5528 5528 5528 5528 5529 5530 5531 5532 5532 5532 5533 5533 5535 5535 5536 5536 5537 5537 5538 5539 5539 5540 5540 5541 5541 5541 5541 5541 5540 5540
5585 5585 5585 5585 5586 5586 5586 5586 5587 5587 5587 5588 5588 5588 5588 5588 5588 5587 5587 5587 5587 5586 5586 5585 5584 5583 5581 5580 5578 5577 5575 5573 5571 5569 5566 5564 5561 5559 5556 5553 5551 5548 5546 5544 5542 5539 5537 5534 5532 5530 5529 5528 5527 5527 5527 5526 5526 5526 5526 5527 5528 5528 5529 5530 5530 5530 5531 5531 5532 5533 5533 5534 5534 5535 5535 5536 5536 5537 5537 5537 5537 5537 5537 5537 5536
5580 5580 5581 5581 5581 5581 5582 5582 5583 5583 5584 5584 5584 5584 5584 5584 5584 5584 5584 5584 5584 5583 5583 5582 5581 5580 5578 5577 5575 5573 5572 5570 5567 5565 5562 5560 5557 5554 5551 5549 5547 5545 5543 5541 5539 5537 5535 5532 5530 5528 5527 5526 5525 5525 5525 5525 5525 5525 5525 5525 5525 5526 5527 5528 5528 5529 5529 5529 5530 5530 5531 5531 5532 5532 5532 5533 5533 5533 5533 5534 5534 5534 5533 5533 5532
5576 5576 5576 5576 5577 5577 5578 5579 5579 5580 5580 5580 5581 5581 5581 5581 5581 5581 5581 5581 5581 5580 5579 5579 5578 5576 5575 5574 5572 5570 5568 5566 5564 5561 5558 5556 5553 5550 5548 5545 5543 5542 5540 5539 5537 5536 5534 5532 5529 5527 5525 5524 5523 5523 5523 5523 5523 5524 5524 5524 5524 5524 5525 5526 5526 5527 5527 5527 5528 5528 5528 5528 5529 5529 5529 5529 5530 5530 5530 5530 5530 5530 5529 5528 5527
5571 5572 5572 5572 5573 5573 5574 5575 5576 5576 5577 5577 5577 5577 5577 5578 5578 5578 5578 5578 5577 5577 5576 5575 5574 5573 5572 5570 5569 5567 5565 5563 5560 5558 5555 5552 5549 5547 5544 5542 5540 5539 5538 5537 5535 5534 5532 5531 5529 5527 5525 5523 5522 5521 5521 5521 5521 5522 5522 5522 5522 5523 5523 5524 5524 5524 5524 5525 5525 5525 5525 5525 5526 5526 5526 5526 5526 5527 5527 5527 5526 5526 5525 5524 5522
5567 5568 5568 5568 5569 5570 5570 5571 5572 5573 5573 5573 5573 5574 5574 5574 5574 5575 5575 5575 5574 5574 5573 5572 5571 5570 5569 5567 5566 5564 5562 5560 5558 5555 5552 5549 5546 5544 5541 5539 5538 5536 5535 5534 5533 5532 5531 5530 5528 5526 5525 5523 5522 5521 5520 5520 5520 5520 5520 5520 5520 5520 5520 5521 5521 5521 5522 5522 5522 5522 5523 5523 5523 5523 5523 5523 5523 5523 5523 5522 5522 5521 5521 5520 5519
5563 5564 5564 5565 5565 5566 5567 5568 5568 5569 5569 5570 5570 5570 5571 5571 5571 5571 5571 5571 5571 5571 5570 5569 5568 5567 5566 5564 5563 5561 5559 5557 5555 5552 5549 5546 5544 5541 5539 5537 5535 5534 5533 5532 5531 5530 5529 5528 5527 5525 5524 5523 5522 5521 5520 5519 5518 5518 5517 5517 5517 5517 5518 5518 5518 5519 5519 5519 5520 5520 5520 5520 5520 5520 5520 5520 5519 5519 5519 5518 5518 5518 5517 5517 5517